Glendale Luke AFB, AZ

4:47 PM MST on September 20, 2019 (GMT -0700)
Luke Air Force Base

Weather History for KLUF - July, 2019

Change the Weather History Date:

Thursday, July 11, 2019

  Actual Average Record
Temperature  
Mean Temperature 96 °F -  
Max Temperature 111 °F 108 °F 119 °F (1958)
Min Temperature 80 °F 74 °F 62 °F (1944)
Cooling Degree Days 30    
Growing Degree Days 46 (Base 50)    
Moisture  
Dew Point 41 °F    
Average Humidity 15    
Maximum Humidity 31    
Minimum Humidity 7    
Precipitation  
Precipitation 0.00 in - - ()
Sea Level Pressure  
Sea Level Pressure 29.79 in    
Wind  
Wind Speed 8 mph (SW)    
Max Wind Speed 22 mph    
Max Gust Speed 30 mph    
Visibility 10 miles    
Events      
Averages and records for this station are not official NWS values.
T = Trace of Precipitation, MM = Missing Value Source: NWS Daily Summary

Daily Weather History Graph

Daily Weather History Graph

Search for Another Location

Airport or City:

Astronomy

Jul. 11, 2019 Rise Set
Actual Time 5:28 AM MST 7:41 PM MST
Civil Twilight 4:59 AM MST 8:10 PM MST
Nautical Twilight 4:24 AM MST 8:44 PM MST
Astronomical Twilight 3:46 AM MST 9:22 PM MST
Moon 3:06 PM MST (7/11) 1:31 AM MST (7/11)
Length of Visible Light 15h 10m
Length of Day
14h 13m
Waxing Gibbous, 75% of the Moon is Illuminated
Jul 11
Waxing Gibbous
Jul 16
Full
Jul 24
Last Quarter
Jul 31
New
Aug 7
First Quarter

Hourly Weather History & Observations

Time (MST) Temp. Dew Point Humidity Pressure Visibility Wind Dir Wind Speed Gust Speed Precip Events Conditions
12:58 AM 95.0 °F 40.1 °F 15% 29.79 in 10.0 mi West 3.5 mph - N/A   Clear
1:58 AM 88.5 °F 43.5 °F 21% 29.78 in 10.0 mi WNW 5.8 mph - N/A   Clear
2:58 AM 86.2 °F 44.1 °F 23% 29.79 in 10.0 mi SW 6.9 mph - N/A   Mostly Cloudy
3:58 AM 83.3 °F 45.9 °F 27% 29.81 in 10.0 mi Calm Calm - N/A   Clear
4:55 AM 83.1 °F 45.7 °F 27% 29.82 in 10.0 mi South 3.5 mph - N/A   Scattered Clouds
5:58 AM 80.8 °F 47.3 °F 31% 29.81 in 10.0 mi North 8.1 mph - N/A   Mostly Cloudy
6:58 AM 88.3 °F 43.3 °F 21% 29.82 in 10.0 mi NW 6.9 mph - N/A   Mostly Cloudy
7:58 AM 93.2 °F 46.0 °F 20% 29.86 in 10.0 mi SSW 6.9 mph - N/A   Mostly Cloudy
8:56 AM 96.6 °F 41.4 °F 15% 29.84 in 10.0 mi South 6.9 mph - N/A   Partly Cloudy
9:00 AM 98.6 °F 41.0 °F 14% 29.85 in 10.0 mi South 6.9 mph - N/A   Mostly Cloudy
9:04 AM 98.6 °F 41.0 °F 14% 29.85 in 10.0 mi South 6.9 mph - N/A   Light Drizzle
9:07 AM 98.6 °F 41.0 °F 14% 29.85 in 10.0 mi South 5.8 mph - N/A   Clear
9:29 AM - - N/A% - - North - - N/A   Unknown
9:32 AM 98.6 °F 41.0 °F 14% 29.85 in 10.0 mi South 6.9 mph - N/A   Mostly Cloudy
9:36 AM 98.6 °F 41.0 °F 14% 29.85 in 10.0 mi South 6.9 mph - N/A   Mostly Cloudy
9:37 AM 98.6 °F 41.0 °F 14% 29.85 in 10.0 mi South 6.9 mph - N/A   Mostly Cloudy
9:56 AM 100.6 °F 40.8 °F 13% 29.84 in 10.0 mi South 4.6 mph - N/A   Mostly Cloudy
10:58 AM 104.4 °F 39.4 °F 11% 29.84 in 10.0 mi South 6.9 mph - N/A   Mostly Cloudy
11:56 AM 105.6 °F 40.3 °F 11% 29.82 in 10.0 mi SSE 9.2 mph - N/A   Scattered Clouds
12:58 PM 109.0 °F 40.5 °F 10% 29.78 in 10.0 mi West 6.9 mph - N/A   Scattered Clouds
1:28 PM 111.2 °F 37.4 °F 8% 29.76 in 10.0 mi SW 18.4 mph 23.0 mph N/A   Scattered Clouds
1:45 PM 111.2 °F 37.4 °F 8% 29.75 in 10.0 mi West 15.0 mph - N/A   Partly Cloudy
1:58 PM 111.9 °F 36.9 °F 8% 29.75 in 10.0 mi WSW 12.7 mph 21.9 mph N/A   Dust Whirls
2:58 PM 111.4 °F 33.1 °F 7% 29.74 in 10.0 mi WSW 18.4 mph 26.5 mph N/A   Scattered Clouds
3:58 PM 110.8 °F 36.0 °F 8% 29.72 in 10.0 mi WSW 21.9 mph 29.9 mph N/A   Dust Whirls
4:58 PM 108.9 °F 34.5 °F 8% 29.71 in 10.0 mi WSW 20.7 mph 27.6 mph N/A   Partly Cloudy
5:58 PM 106.7 °F 36.0 °F 9% 29.71 in 10.0 mi WSW 15.0 mph - N/A   Scattered Clouds
6:58 PM 104.0 °F 39.0 °F 11% 29.71 in 10.0 mi WSW 15.0 mph - N/A   Scattered Clouds
7:58 PM 101.3 °F 41.4 °F 13% 29.72 in 10.0 mi SW 10.4 mph - N/A   Clear
8:58 PM 98.1 °F 44.2 °F 16% 29.72 in 10.0 mi WSW 8.1 mph - N/A   Scattered Clouds
10:58 PM 95.5 °F 46.6 °F 19% 29.79 in 10.0 mi SW 8.1 mph - N/A   Mostly Cloudy
11:58 PM 94.8 °F 46.0 °F 19% 29.78 in 10.0 mi South 10.4 mph - N/A   Scattered Clouds